This demonstration page uses our WeatherBlox Daily Observations layout. Learn more.

Left ArrowRight Arrow

Hourly Observations for July 5, 2022

Temp ( °F °C ) Dew Point ( °F °C ) Humidity (%) Winds ( mph kmh ) Pressure ( in mb ) Visibility ( mi km ) Precip ( " mm )
12:56 am 00:56 Clear 82 27.8 67 19.4 60 60 S 13 20 29.80 1009 10 16 0.00 0.00
1:56 am 01:56 Clear 80 26.7 67 19.4 64 64 S 12 19 29.78 1009 10 16 0.00 0.00
2:56 am 02:56 Clear 77 25 67 19.4 71 71 S 10 17 29.77 1008 10 16 0.00 0.00
3:56 am 03:56 Mostly Cloudy 82 27.8 66 18.9 58 58 SSW 18 30 29.77 1008 10 16 0.00 0.00
4:56 am 04:56 Clear 78 25.6 67 19.4 69 69 SSW 16 26 29.78 1008 10 16 0.00 0.00
5:56 am 05:56 Cloudy 78 25.6 67 19.4 69 69 SSW 17 28 29.78 1008 10 16 0.00 0.00
6:56 am 06:56 Mostly Cloudy 78 25.6 66 18.9 67 67 S 8 13 29.75 1008 10 16 0.00 0.00
7:56 am 07:56 Mostly Cloudy 76 24.4 66 18.9 72 72 E 17 28 29.81 1010 10 16 0.00 0.00
8:56 am 08:56 Sunny 75 23.9 66 18.9 74 74 ESE 13 20 29.82 1010 10 16 0.00 0.00
9:56 am 09:56 Sunny 81 27.2 67 19.4 62 62 SSE 12 19 29.81 1009 10 16 0.00 0.00
10:56 am 10:56 Sunny 83 28.3 68 20 61 61 SSE 13 20 29.80 1009 10 16 0.00 0.00
11:56 am 11:56 Sunny 85 29.4 69 20.6 59 59 SSE 14 22 29.79 1009 10 16 0.00 0.00
12:56 pm 12:56 Sunny 86 30 71 21.7 61 61 S 14 22 29.79 1009 10 16 0.00 0.00
1:56 pm 13:56 Sunny 90 32.2 71 21.7 54 54 SSE 14 22 29.79 1009 10 16 0.00 0.00
2:56 pm 14:56 Sunny 92 33.3 71 21.7 51 51 SSE 14 22 29.77 1008 10 16 0.00 0.00
3:56 pm 15:56 Sunny 94 34.4 72 22.2 49 49 SSE 12 19 29.75 1007 10 16 0.00 0.00
4:56 pm 16:56 Sunny 94 34.4 71 21.7 48 48 SE 9 15 29.74 1007 10 16 0.00 0.00
5:56 pm 17:56 Sunny 93 33.9 72 22.2 50 50 ESE 5 7 29.75 1007 10 16 0.00 0.00
6:56 pm 18:56 Mostly Cloudy 83 28.3 71 21.7 67 67 NNE 25 41 29.77 1008 10 16 0.00 0.00
7:56 pm 19:56 Sunny 79 26.1 68 20 69 69 NE 20 31 29.79 1009 10 16 0.00 0.00
8:56 pm 20:56 Sunny 76 24.4 67 19.4 74 74 ENE 20 31 29.80 1009 10 16 0.00 0.00
9:34 pm 21:34 Mostly Clear with Nearby Thunderstorms 77 25 66 19 69 69 SSW 8 13 29.82 1010 10 16 0.00 0.00
9:49 pm 21:49 Partly Cloudy 77 25 66 19 69 69 SW 10 17 29.82 1010 10 16 0.00 0.00
9:56 pm 21:56 Partly Cloudy 77 25 66 18.9 69 69 SSW 10 17 29.88 1012 10 16 0.00 0.00
10:56 pm 22:56 Cloudy with Light Rain 74 23.3 68 20 82 82 E 10 17 29.89 1012 10 16 0.00 0.00
11:12 pm 23:12 Cloudy with Nearby Thunderstorms 73 23 68 20 83 83 E 12 19 29.86 1011 10 16 0.00 0.00
11:56 pm 23:56 Mostly Cloudy with Nearby Thunderstorms 72 22.2 70 21.1 94 94 SE 26 43 29.85 1011 10 16 0.01 0.25

Powered by AerisWeather